CAPE
1 3 2 1 1 1 1 2 1 0 0 0 0 0 0 0 0 0 0 0 0 0 0 0 0 0 0 0 0 0 0 0 0 0 0 0 0 0 0 0 0 0 0 0 0 0 0 0 0 0 0 0 0 0
0 0 0 1 2 2 1 1 1 0 0 0 0 0 0 0 0 0 0 0 0 0 0 0 0 0 0 0 0 0 0 0 0 0 0 0 0 0 0 0 0 0 0 0 0 0 0 0 0 10 18 26 17 28
0 0 0 0 0 0 1 1 1 2 0 0 0 0 0 0 0 0 0 0 0 0 0 0 0 0 0 0 0 0 0 0 0 0 0 0 0 0 0 0 0 0 0 0 0 3 7 28 25 19 20 14 5 5
0 0 1 1 1 0 2 1 1 1 0 0 0 0 0 0 0 0 0 0 0 0 0 0 0 0 0 0 0 0 0 0 0 0 0 0 0 0 0 0 0 0 0 0 1 3 18 9 20 33 18 12 13 9
0 1 1 0 0 2 2 1 1 1 0 0 0 0 0 0 0 0 0 0 0 0 0 0 0 0 0 0 0 0 0 0 0 0 0 0 0 0 0 0 0 3 7 6 12 18 21 16 38 49 20 23 26 33
0 1 1 2 3 3 2 1 1 1 1 0 0 0 0 0 0 0 0 0 0 0 0 0 0 0 0 0 0 0 0 0 0 0 0 1 4 0 0 0 0 5 13 10 28 12 7 4 25 56 47 50 41 42
0 1 1 2 2 3 2 0 0 2 2 0 0 0 0 0 0 0 0 0 0 0 0 0 0 0 0 0 0 0 0 0 0 0 0 0 2 1 4 3 2 25 12 14 28 17 14 13 23 51 67 42 49 41
1 0 1 0 1 1 2 0 0 0 0 0 0 0 0 0 0 0 0 0 0 0 0 0 0 0 0 0 0 0 0 0 0 0 0 2 2 18 8 30 21 17 12 5 11 24 26 25 42 52 92 59 26 24
0 2 1 0 1 1 0 0 0 1 0 0 0 0 0 0 4 1 0 0 0 0 0 0 0 2 0 0 1 0 0 2 2 2 6 0 1 7 27 23 21 2 0 1 10 20 21 39 28 35 50 30 22 14
0 0 2 1 1 1 0 0 0 1 0 0 0 0 4 1 0 0 0 1 3 0 0 0 0 0 0 0 2 0 8 1 10 15 36 10 10 51 35 14 0 7 25 19 47 48 42 33 51 29 29 33 38 41
0 0 1 1 2 0 0 0 0 0 0 1 6 8 0 0 0 1 8 3 4 0 0 0 0 1 0 1 13 6 4 9 1 27 20 30 44 60 11 7 10 14 15 35 62 71 89 83 37 23 19 19 41 44
0 0 0 3 2 0 0 0 1 1 0 0 0 0 0 0 5 5 1 3 0 0 0 0 0 2 5 0 5 15 11 8 9 28 21 22 34 9 3 2 3 13 48 64 47 61 103 46 21 15 32 29 16 16
0 0 0 3 0 0 0 1 0 0 0 2 2 10 10 3 0 0 0 0 0 0 0 2 0 8 3 0 26 19 6 7 30 24 24 50 84 22 0 0 0 31 55 64 74 56 33 21 11 8 1 0 2 2
0 0 0 0 0 0 0 1 0 0 0 5 7 0 0 0 0 0 0 9 6 13 9 13 21 24 20 20 28 4 13 30 11 18 27 22 45 14 0 0 20 19 42 55 35 26 11 13 3 2 2 3 3 2
0 0 0 0 0 0 0 1 1 0 8 4 11 0 0 0 5 4 1 0 0 2 1 5 23 38 21 18 8 18 13 20 16 27 42 29 29 31 0 11 31 33 82 35 23 24 10 3 1 2 3 3 3 3
1 0 0 0 0 0 1 0 0 0 0 6 9 1 3 5 7 8 4 14 13 11 11 22 28 12 15 16 33 9 20 16 28 33 21 27 66 97 85 85 70 124 34 18 0 1 1 1 3 2 3 3 3 3
0 11 6 0 0 1 0 0 0 23 30 23 2 0 9 6 3 1 5 9 15 10 18 14 6 12 21 14 15 36 31 40 55 33 23 157 154 178 123 116 114 26 16 8 4 1 2 2 3 2 3 3 2 3
6 6 9 2 0 1 0 0 28 28 21 6 4 4 13 18 9 6 3 7 9 20 14 22 8 13 11 6 25 18 36 25 34 42 41 147 227 122 38 211 20 35 36 36 0 2 3 2 3 2 2 2 3 2
5 0 1 1 1 0 1 0 15 28 19 16 8 8 8 8 22 27 5 5 15 19 9 15 17 16 20 30 39 46 61 40 42 25 38 142 84 45 146 27 30 37 10 23 4 2 2 3 3 3 3 2 4 3
0 0 0 0 2 1 4 9 0 8 15 19 23 16 9 17 21 22 15 12 8 17 20 14 8 34 24 38 33 53 30 40 26 25 45 70 116 70 12 3 29 14 28 30 0 2 2 2 2 2 3 3 2 3
0 0 0 0 1 0 1 4 15 8 21 17 15 12 21 17 13 15 15 16 13 9 7 6 12 18 30 39 34 43 45 21 22 80 51 46 7 3 1 2 39 10 8 10 32 0 0 0 0 1 1 0 1 1
26 8 18 4 3 1 0 1 0 10 19 17 10 12 14 9 10 13 17 13 10 3 2 2 4 26 31 14 4 15 20 47 233 51 28 33 0 0 0 1 9 4 0 0 2 0 1 10 0 0 0 0 0 0
0 2 16 16 13 2 3 15 0 2 25 24 27 17 17 17 25 38 37 22 8 3 1 3 2 0 1 16 16 31 49 135 157 31 29 0 0 0 0 0 0 0 0 0 0 0 0 0 0 0 0 0 0 0
6 4 0 1 3 2 2 4 12 21 21 11 8 7 7 7 43 33 18 46 51 58 43 57 28 9 23 40 37 47 129 198 133 4 1 0 0 0 0 0 0 0 1 1 0 0 0 0 0 0 0 0 1 0
3 1 4 3 1 3 12 21 20 17 6 10 18 11 8 8 25 33 29 60 99 93 150 112 74 55 43 52 138 206 223 158 31 0 0 3 0 2 3 5 8 7 11 10 6 7 9 8 7 1 0 0 0 0
0 3 1 2 10 28 2 5 9 9 6 10 13 19 25 11 12 41 31 25 82 126 197 156 126 94 124 55 112 323 241 95 74 1 0 2 9 18 23 23 22 13 20 20 26 23 29 25 19 13 19 9 2 7
0 1 10 1 25 19 25 19 22 10 10 3 2 11 15 30 24 59 25 148 135 135 203 178 140 170 105 188 204 157 129 18 1 0 0 11 25 29 17 21 17 27 30 29 29 31 37 44 38 29 25 15 23 24
4 7 18 31 17 3 30 30 38 23 5 8 19 12 46 39 49 43 238 354 304 277 203 269 48 4 79 87 182 157 75 24 0 4 6 29 20 25 12 37 52 0 4 16 40 48 44 32 37 32 30 26 28 25
13 9 19 14 11 13 11 7 29 21 71 46 5 1 53 18 11 73 330 350 418 291 297 281 236 141 64 81 171 91 30 1 3 10 30 35 21 18 18 23 49 72 55 38 0 0 0 0 0 10 36 34 37 20
1 8 1 1 10 2 8 6 8 8 28 16 14 12 0 1 24 70 99 99 179 292 221 179 132 92 40 47 147 98 63 20 0 1 17 33 22 35 43 40 67 62 45 71 38 0 0 1 19 19 17 12 34 21
10 3 8 9 6 5 2 7 0 5 10 0 0 0 2 12 44 58 40 40 38 37 13 36 22 32 58 71 61 223 119 82 15 52 89 11 5 36 26 37 16 42 47 52 35 24 56 28 43 34 6 1 1 7
6 18 10 11 5 9 21 0 3 11 8 7 7 16 19 29 42 33 23 13 18 27 21 16 42 33 52 42 45 65 22 51 108 27 0 5 43 60 19 23 14 64 37 39 28 41 48 47 24 15 11 1 5 5
3 3 3 2 3 6 10 12 22 37 14 11 12 18 28 26 19 27 19 11 14 10 14 23 27 24 18 29 51 18 55 47 58 62 31 27 19 42 29 22 2 43 38 58 59 52 50 22 14 0 0 0 0 1
CIN
-1 -4 -4 -1 -0 -0 -0 -0 -0 -0 -0 -0 -0 -0 -0 -0 -0 -0 -0 -0 -0 -0 -0 -0 -0 -0 -0 -0 -0 -0 -0 -0 -0 -0 -0 -0 -0 -0 -0 -0 -0 -0 -0 -0 -0 -0 -0 -0 -0 -0 -0 -0 -0 -0
-0 -0 -1 -1 -1 -1 -0 -0 -0 -0 -0 -0 -0 -0 -0 -0 -0 -0 -0 -0 -0 -0 -0 -0 -0 -0 -0 -0 -0 -0 -0 -0 -0 -0 -0 -0 -0 -0 -0 -0 -0 -0 -0 -0 -0 -0 -0 -0 -0 -2 -4 -4 -4 -4
-0 -0 -0 -0 -0 -0 -1 -0 -0 -0 -0 -0 -0 -0 -0 -0 -0 -0 -0 -0 -0 -0 -0 -0 -0 -0 -0 -0 -0 -0 -0 -0 -0 -0 -0 -0 -0 -0 -0 -0 -0 -0 -0 -0 -0 -1 -1 -1 -4 -11 -9 -5 -5 -4
-0 -0 -2 -1 -0 -0 -0 -1 -0 -0 -0 -0 -0 -0 -0 -0 -0 -0 -0 -0 -0 -0 -0 -0 -0 -0 -0 -0 -0 -0 -0 -0 -0 -0 -0 -0 -0 -0 -0 -0 -0 -0 -0 -1 -2 -2 -4 -6 -6 -10 -6 -2 -28 -9
-0 -1 -0 -0 -0 -1 -2 -3 -2 -1 -0 -0 -0 -0 -0 -0 -0 -0 -0 -0 -0 -0 -0 -0 -0 -0 -0 -0 -0 -0 -0 -0 -0 -0 -0 -0 -0 -0 -0 -0 -0 -2 -3 -2 -2 -2 -3 -4 -3 -5 -14 -21 -27 -8
-2 -2 -1 -1 -1 -3 -3 -4 -3 -2 -1 -0 -0 -0 -0 -0 -0 -0 -0 -0 -0 -0 -0 -0 -0 -0 -0 -0 -0 -0 -0 -0 -0 -0 -0 -1 -2 -0 -0 -0 -0 -4 -2 -3 -4 -6 -15 -6 -3 -2 -3 -20 -12 -3
-4 -2 -1 -0 -3 -6 -3 -8 -6 -4 -2 -0 -0 -0 -0 -0 -0 -0 -0 -0 -0 -0 -0 -0 -0 -0 -0 -0 -0 -0 -0 -0 -0 -0 -0 -0 -4 -2 -5 -2 -4 -2 -3 -3 -2 -4 -3 -3 -3 -7 -6 -14 -11 -2
-5 -3 -1 -2 -2 -5 -1 -5 -0 -4 -1 -0 -0 -0 -0 -0 -0 -0 -0 -0 -0 -0 -0 -0 -0 -0 -0 -0 -0 -0 -0 -0 -0 -0 -0 -1 -3 -5 -2 -5 -2 -5 -2 -6 -7 -4 -4 -2 -19 -16 -5 -11 -1 -1
-1 -9 -4 -0 -2 -1 -0 -2 -0 -4 -0 -0 -0 -0 -0 -0 -0 -3 -0 -0 -0 -0 -0 -0 -0 -3 -0 -1 -1 -0 -0 -1 -3 -2 -4 -0 -4 -2 -12 -17 -1 -6 -0 -7 -3 -24 -2 -3 -3 -3 -2 -2 -2 -1
-0 -0 -9 -7 -3 -1 -0 -0 -0 -2 -0 -0 -0 -0 -1 -3 -0 -0 -0 -0 -1 -0 -0 -0 -0 -0 -0 -0 -2 -0 -1 -1 -1 -4 -2 -3 -3 -5 -14 -10 -0 -7 -2 -2 -44 -30 -18 -1 -1 -1 -2 -1 -1 -1
-0 -0 -10 -10 -8 -1 -0 -0 -1 -0 -0 -1 -1 -1 -0 -0 -0 -1 -0 -0 -1 -0 -0 -0 -0 -1 -0 -1 -4 -2 -5 -2 -1 -3 -2 -3 -3 -3 -3 -3 -2 -1 -2 -2 -20 -21 -2 -2 -2 -2 -1 -1 -1 -0
-0 -0 -0 -13 -5 -0 -0 -0 -0 -0 -0 -0 -0 -0 -0 -0 -1 -0 -1 -1 -0 -1 -0 -0 -0 -2 -2 -0 -1 -6 -2 -5 -2 -2 -2 -1 -3 -10 -4 -2 -2 -1 -2 -1 -1 -1 -1 -2 -2 -3 -0 -3 -4 -1
-0 -0 -0 -12 -0 -0 -0 -0 -0 -0 -0 -1 -0 -1 -1 -1 -0 -0 -0 -0 -1 -0 -0 -1 -0 -2 -4 -0 -2 -3 -5 -4 -3 -2 -1 -8 -1 -1 -2 -0 -0 -1 -1 -1 -1 -1 -2 -1 -2 -0 -0 -0 -0 -0
-0 -0 -0 -0 -0 -0 -0 -0 -0 -0 -0 -1 -1 -0 -0 -0 -0 -0 -0 -2 -3 -2 -3 -2 -2 -1 -5 -2 -1 -5 -4 -3 -2 -2 -2 -4 -1 -4 -0 -0 -3 -2 -1 -1 -0 -1 -6 -0 -0 -0 -0 -0 -0 -0
-0 -0 -0 -0 -0 -0 -0 -0 -0 -1 -1 -2 -1 -0 -0 -0 -2 -2 -3 -3 -0 -2 -2 -2 -2 -2 -1 -3 -4 -5 -2 -3 -4 -3 -4 -6 -8 -34 -0 -2 -2 -1 -0 -1 -1 -1 -0 -0 -0 -0 -0 -0 -0 -0
-0 -0 -0 -0 -0 -0 -0 -0 -0 -7 -15 -2 -1 -0 -3 -2 -2 -3 -1 -3 -2 -3 -2 -3 -2 -3 -2 -3 -2 -2 -2 -2 -4 -16 -5 -6 -27 -14 -4 -0 -1 -0 -2 -0 -0 -0 -0 -0 -0 -0 -0 -0 -0 -0
-0 -1 -7 -0 -0 -0 -0 -0 -0 -1 -0 -0 -1 -0 -3 -4 -7 -0 -4 -2 -1 -2 -1 -2 -2 -2 -3 -3 -4 -3 -3 -4 -3 -4 -3 -16 -8 -5 -0 -1 -1 -3 -1 -3 -0 -0 -0 -0 -0 -0 -0 -0 -0 -0
-1 -0 -2 -24 -10 -0 -0 -0 -4 -0 -0 -1 -1 -3 -2 -2 -5 -7 -10 -3 -2 -2 -2 -2 -3 -2 -2 -3 -4 -3 -17 -7 -2 -4 -4 -6 -14 -3 -2 -0 -5 -2 -0 -0 -0 -0 -0 -0 -0 -0 -0 -0 -0 -0
-0 -0 -0 -0 -0 -0 -1 -2 -3 -0 -1 -1 -3 -4 -5 -5 -1 -2 -3 -7 -1 -1 -3 -5 -3 -2 -3 -4 -4 -4 -4 -3 -5 -4 -4 -8 -11 -18 -0 -1 -1 -1 -24 -5 -17 -0 -0 -0 -0 -0 -0 -0 -0 -0
-0 -0 -0 -0 -0 -0 -0 -1 -4 -2 -1 -1 -2 -2 -6 -2 -2 -3 -4 -4 -3 -2 -1 -1 -3 -2 -4 -4 -6 -4 -8 -3 -4 -5 -3 -2 -2 -17 -2 -1 -1 -24 -7 -2 -0 -3 -0 -0 -0 -0 -0 -0 -0 -0
-0 -1 -0 -0 -0 -0 -0 -2 -0 -1 -2 -2 -2 -3 -2 -3 -2 -3 -2 -2 -2 -3 -2 -3 -4 -6 -3 -3 -1 -2 -1 -2 -3 -1 -10 -4 -21 -2 -1 -2 -1 -11 -5 -1 -2 -0 -0 -0 -0 -0 -0 -0 -0 -0
-0 -3 -0 -3 -1 -2 -0 -1 -0 -0 -0 -1 -5 -4 -2 -2 -2 -1 -3 -2 -2 -2 -4 -3 -4 -3 -4 -2 -4 -2 -1 -2 -3 -22 -34 -15 -0 -0 -0 -0 -1 -2 -1 -0 -1 -0 -1 -1 -1 -0 -0 -0 -0 -0
-0 -10 -4 -2 -1 -0 -0 -1 -1 -2 -0 -0 -1 -1 -1 -1 -2 -2 -1 -3 -2 -2 -1 -2 -1 -0 -3 -2 -2 -1 -1 -2 -3 -22 -13 -0 -0 -0 -0 -0 -0 -0 -0 -0 -0 -0 -0 -0 -0 -0 -0 -0 -0 -0
-0 -0 -0 -0 -0 -0 -0 -1 -0 -18 -4 -1 -2 -2 -2 -2 -1 -1 -2 -2 -3 -2 -2 -6 -8 -10 -6 -5 -2 -2 -2 -1 -2 -25 -2 -0 -0 -0 -0 -0 -0 -0 -1 -2 -0 -0 -0 -0 -0 -0 -0 -1 -2 -1
-0 -0 -0 -0 -0 -0 -0 -1 -1 -1 -0 -1 -1 -1 -1 -3 -2 -1 -2 -2 -2 -4 -4 -2 -1 -3 -3 -2 -6 -17 -2 -2 -2 -0 -0 -2 -0 -2 -1 -2 -4 -2 -4 -3 -2 -2 -3 -4 -2 -2 -0 -1 -0 -0
-0 -0 -0 -0 -2 -1 -1 -6 -4 -1 -2 -2 -1 -1 -1 -5 -2 -2 -2 -23 -8 -2 -1 -3 -2 -1 -2 -28 -60 -1 -6 -3 -2 -11 -0 -3 -4 -2 -1 -1 -1 -1 -4 -3 -3 -2 -3 -3 -2 -3 -2 -4 -2 -4
-0 -0 -2 -4 -2 -1 -6 -6 -7 -4 -1 -1 -4 -1 -2 -0 -2 -2 -23 -2 -1 -1 -1 -3 -3 -3 -1 -5 -7 -3 -1 -13 -13 -0 -1 -3 -3 -5 -3 -4 -0 -2 -2 -4 -1 -2 -2 -3 -2 -2 -4 -4 -4 -5
-0 -0 -0 -1 -2 -3 -1 -1 -0 -1 -2 -10 -1 -1 -1 -0 -1 -41 -1 -1 -1 -3 -4 -2 -68 -76 -8 -3 -6 -2 -2 -3 -0 -8 -14 -3 -2 -2 -3 -2 -3 -0 -15 -6 -4 -3 -1 -3 -1 -2 -2 -2 -3 -3
-0 -2 -1 -1 -0 -0 -1 -1 -0 -2 -2 -1 -1 -1 -1 -43 -12 -27 -2 -2 -1 -2 -2 -1 -1 -5 -3 -5 -4 -2 -4 -9 -7 -1 -2 -2 -1 -2 -3 -8 -2 -4 -3 -3 -0 -0 -0 -0 -0 -5 -4 -1 -3 -4
-2 -2 -2 -1 -1 -2 -1 -2 -2 -7 -6 -6 -4 -8 -0 -15 -32 -1 -2 -4 -6 -2 -3 -3 -11 -2 -3 -2 -6 -3 -16 -24 -1 -19 -4 -2 -3 -4 -3 -3 -2 -1 -3 -4 -7 -0 -0 -12 -14 -21 -9 -6 -5 -4
-1 -1 -0 -0 -0 -1 -2 -3 -6 -1 -10 -4 -4 -0 -7 -13 -2 -2 -2 -2 -4 -14 -3 -19 -71 -39 -5 -4 -1 -3 -14 -23 -26 -42 -11 -4 -10 -2 -3 -4 -22 -7 -3 -3 -4 -5 -4 -5 -3 -5 -3 -3 -3 -3
-0 -0 -0 -0 -1 -2 -1 -0 -2 -0 -1 -1 -1 -2 -3 -2 -1 -1 -4 -4 -4 -5 -1 -6 -3 -5 -6 -5 -2 -7 -35 -6 -3 -4 -0 -17 -5 -5 -14 -7 -9 -2 -4 -3 -6 -4 -3 -2 -5 -5 -5 -4 -3 -2
-0 -0 -0 -0 -0 -0 -1 -1 -2 -5 -1 -0 -1 -2 -2 -2 -2 -27 -2 -6 -3 -3 -5 -5 -4 -6 -4 -3 -11 -35 -18 -6 -7 -20 -37 -39 -22 -14 -7 -6 -24 -1 -2 -3 -3 -3 -3 -1 -4 -1 -0 -0 -0 -2
Wind_Speed
33 32 30 30 31 30 29 29 28 28 28 27 27 27 27 27 27 24 20 22 21 20 19 19 18 18 16 16 20 15 16 13 15 18 19 20 19 18 19 20 19 21 23 23 24 24 26 22 23 24 27 28 32 34
33 32 31 31 30 30 29 29 29 28 28 27 27 27 26 26 26 25 21 23 23 18 21 19 18 17 18 19 20 14 19 17 20 19 19 20 19 19 21 23 17 23 16 25 23 22 24 23 20 25 26 30 34 37
32 31 32 31 31 30 30 29 28 28 28 27 27 27 27 26 26 25 23 25 23 20 17 15 15 14 15 14 18 18 16 19 18 20 22 20 20 21 21 21 21 19 17 20 24 20 18 20 23 24 30 35 38 40
30 31 31 31 30 30 29 29 28 27 27 27 27 27 27 27 27 26 23 23 22 20 18 14 13 15 16 14 16 18 20 17 19 17 18 18 19 17 19 22 22 22 24 23 23 20 22 23 19 29 34 40 40 42
29 30 31 30 30 29 28 28 28 27 27 27 27 27 28 28 28 27 18 18 19 20 20 19 15 16 14 14 16 13 13 14 15 14 15 17 17 18 17 18 21 18 21 22 25 22 25 27 30 35 41 42 43 43
28 29 30 30 29 29 28 28 28 27 26 27 26 27 28 28 28 22 14 14 18 21 19 17 15 14 14 16 14 10 10 14 15 16 16 16 16 17 20 21 21 22 22 23 25 27 28 31 36 38 38 45 45 44
28 27 30 29 29 28 28 28 28 27 27 27 26 27 28 27 25 18 19 18 23 22 16 18 15 13 13 13 11 10 6 11 13 16 14 15 17 13 20 23 21 22 21 21 22 23 27 32 39 43 44 45 44 42
29 27 28 29 29 29 29 29 27 26 26 27 27 27 28 28 23 15 13 16 17 16 15 18 16 14 10 11 10 10 10 10 12 13 14 14 15 13 18 21 19 20 21 23 26 29 37 40 41 44 44 42 48 48
29 29 29 29 29 28 27 27 24 26 26 27 27 28 21 16 16 17 16 16 15 16 17 15 18 15 11 11 14 13 14 15 14 14 12 14 15 14 16 18 18 22 25 25 31 32 30 35 39 42 46 45 45 38
28 29 30 30 29 28 25 24 24 26 26 26 22 15 15 17 15 16 16 14 11 11 13 17 16 15 12 11 11 16 13 15 18 17 15 15 14 14 14 16 20 21 19 26 26 29 31 38 36 40 49 31 37 34
29 29 30 30 30 26 24 24 24 24 22 15 14 16 16 14 17 16 17 15 12 14 11 12 10 13 10 15 15 14 19 18 19 15 17 16 16 13 15 18 21 30 35 36 38 38 25 19 31 44 34 26 30 34
29 29 30 30 28 24 24 23 18 16 19 19 20 17 17 16 15 15 12 13 13 14 10 8 7 11 13 14 14 16 17 15 17 17 16 17 14 15 19 24 31 36 37 39 41 24 19 33 40 32 23 48 43 32
29 30 30 29 24 23 23 22 15 18 22 17 15 14 14 12 13 11 9 10 10 12 9 8 8 10 12 13 15 16 16 14 16 15 16 17 13 16 24 31 38 36 37 39 41 36 40 39 37 37 32 27 19 13
29 31 31 28 22 21 21 17 13 14 15 16 12 15 12 11 12 11 11 14 12 13 7 7 9 11 14 14 14 15 14 17 17 15 16 16 16 22 29 37 36 36 37 40 40 41 37 33 39 31 21 15 10 11
31 32 28 22 19 19 18 13 11 12 15 16 15 16 12 14 16 15 15 14 11 12 10 9 13 12 13 15 15 15 15 14 13 17 17 20 24 27 35 36 34 34 37 38 39 40 42 37 32 11 6 6 9 10
30 30 20 16 15 14 11 9 11 14 15 16 15 16 17 17 13 10 10 10 10 10 11 12 11 14 12 13 13 13 15 15 17 17 21 25 27 32 34 32 32 33 34 34 36 38 38 33 22 17 17 7 5 14
25 19 17 15 13 10 7 12 13 14 16 17 17 16 19 19 18 16 13 12 12 11 10 13 13 11 15 12 11 12 14 14 17 21 25 25 27 32 31 30 29 30 31 31 35 36 36 29 19 31 27 24 11 5
19 21 18 12 8 10 13 14 15 17 19 18 19 17 13 14 18 17 15 14 12 11 12 12 15 10 11 12 13 17 16 15 20 23 26 26 30 29 29 25 19 27 27 30 33 35 5 26 29 30 26 21 29 35
20 20 16 11 13 13 15 17 18 19 19 20 21 20 17 18 19 20 19 18 15 16 15 13 13 11 9 10 18 18 18 19 21 27 28 25 26 26 23 19 19 23 26 28 31 31 5 14 29 34 29 33 35 36
22 21 19 16 15 15 17 18 18 21 21 19 22 21 20 20 20 19 16 15 14 11 11 10 7 10 18 17 17 15 16 19 24 27 25 27 26 23 20 18 19 21 24 27 29 32 30 32 33 33 36 38 39 40
17 17 15 15 17 18 19 19 19 21 23 24 22 21 20 19 17 17 16 15 10 10 9 9 9 17 20 19 18 19 19 22 26 23 23 23 23 19 18 17 18 21 22 25 28 31 33 34 33 34 36 38 40 41
15 11 14 15 18 19 22 20 21 23 21 20 22 18 20 19 17 15 14 13 11 11 10 10 15 17 14 10 11 14 17 19 16 17 21 9 17 15 14 15 16 20 22 24 26 28 30 29 29 31 32 33 34 38
16 12 12 14 19 19 22 17 20 20 19 18 20 18 19 19 18 15 16 16 16 14 12 12 9 9 13 15 11 11 14 13 13 16 17 14 11 11 13 14 16 18 21 23 25 27 28 29 32 32 33 34 35 36
14 14 14 15 17 18 18 19 20 21 20 21 21 22 23 21 14 17 19 17 16 9 10 10 8 7 6 9 6 6 7 10 12 12 14 10 10 11 13 15 17 18 20 23 25 27 28 30 31 32 33 33 34 34
13 15 16 16 18 19 19 18 18 20 21 21 22 21 19 15 16 16 15 11 5 10 6 6 5 5 5 5 6 5 8 9 11 15 8 7 8 10 13 14 15 18 20 23 24 26 27 28 28 30 33 34 35 35
19 16 18 17 19 19 18 20 21 21 20 19 19 18 16 16 18 15 12 8 9 6 8 6 7 9 9 8 10 9 11 12 17 18 17 9 6 9 11 14 16 18 19 21 23 24 25 26 27 28 29 29 29 32
21 21 22 23 20 18 19 21 18 17 16 16 16 16 16 13 11 12 15 3 7 10 15 9 12 8 10 8 7 8 8 10 12 6 2 4 7 8 12 13 15 16 17 19 21 23 24 24 25 25 26 27 27 28
20 20 21 24 23 24 20 19 19 19 19 19 17 16 16 14 14 16 13 14 16 14 16 15 6 7 13 7 6 7 8 14 15 7 4 14 12 12 13 15 15 16 14 17 18 16 19 21 21 22 22 23 25 25
22 22 22 22 23 22 23 23 21 22 20 20 20 20 20 20 21 17 9 9 11 12 12 16 9 6 9 9 7 7 10 12 6 6 13 3 9 15 15 17 13 14 14 14 18 19 20 21 22 21 21 21 21 22
24 24 21 21 23 23 23 24 22 20 22 24 22 21 21 23 21 12 11 8 12 14 16 16 15 13 7 8 6 5 9 12 12 24 31 21 9 18 12 14 15 15 16 17 17 18 16 14 13 14 20 22 22 22
21 23 23 23 23 25 26 24 24 24 24 25 27 26 24 19 19 19 19 19 20 12 22 5 3 25 17 11 8 8 12 10 8 30 31 11 10 17 9 13 16 6 17 17 17 19 18 18 20 22 24 22 22 23
23 24 23 22 23 22 22 23 24 26 28 29 28 27 25 24 23 21 21 24 26 26 25 25 26 25 23 21 10 4 7 7 7 2 12 28 24 6 10 13 15 14 17 17 18 19 20 20 21 22 22 21 20 21
22 23 22 21 21 22 24 23 22 22 27 27 27 26 25 25 24 22 20 24 24 24 25 26 27 26 24 22 7 6 6 18 26 27 26 21 20 15 11 14 16 14 15 17 19 19 19 19 20 20 20 20 19 18
Wind_Direction
320 322 326 324 319 316 313 312 314 317 318 319 320 320 322 323 324 325 335 332 323 311 320 316 316 312 319 317 307 329 325 328 321 318 318 317 317 325 324 323 326 327 327 325 325 321 317 346 340 333 330 328 323 317
321 321 320 322 319 318 313 313 312 313 317 318 316 316 315 316 318 317 325 328 323 318 314 320 315 315 312 313 311 325 317 321 319 318 323 319 321 322 325 324 339 327 330 328 331 328 336 335 336 335 331 326 320 315
322 321 320 319 316 314 312 312 312 311 312 314 315 315 315 314 315 320 325 325 321 321 323 329 327 328 321 314 311 315 324 316 322 314 314 318 319 325 323 328 328 329 331 330 332 346 342 339 334 333 326 320 315 308
322 320 318 317 315 313 313 310 310 312 312 312 312 313 313 313 310 313 327 330 330 323 320 333 339 327 323 326 317 309 315 323 321 324 322 325 326 340 331 331 329 328 330 329 325 327 331 330 329 326 320 316 314 304
326 323 316 314 313 312 311 309 309 313 313 311 308 308 308 309 306 310 343 342 339 328 315 319 337 326 332 323 317 323 325 329 332 335 336 330 334 335 335 331 332 337 335 327 327 330 327 322 319 317 314 313 309 306
325 324 317 313 311 309 312 311 310 311 312 310 310 307 307 310 307 334 355 1 336 330 328 327 336 335 330 325 326 330 328 325 327 333 336 338 341 341 336 332 337 336 336 334 332 332 325 319 314 316 317 306 308 310
317 323 312 309 308 309 310 308 306 310 307 305 306 305 303 305 313 330 325 332 321 323 334 323 335 344 334 338 351 355 359 341 338 332 334 336 335 340 331 326 336 340 340 338 335 332 326 321 313 308 306 308 312 316
310 315 309 308 308 307 305 305 312 313 305 298 298 300 299 295 307 343 346 338 335 333 333 321 322 333 3 356 1 358 354 351 341 338 338 338 338 336 339 349 350 347 344 341 335 325 312 290 288 295 310 319 309 312
306 306 302 305 309 309 308 313 320 306 290 288 290 287 318 333 333 333 340 334 334 320 316 324 309 328 10 354 347 354 346 338 347 341 338 345 341 334 349 349 349 347 342 340 326 276 272 279 283 287 311 321 318 326
303 299 300 303 305 305 309 316 312 284 278 284 302 329 332 339 348 337 332 337 348 340 317 309 322 330 354 3 360 344 357 346 342 351 1 347 339 356 359 357 350 347 347 270 270 275 278 284 282 286 314 331 328 328
299 297 297 298 298 301 305 309 299 285 282 319 327 327 341 350 327 328 316 319 335 329 337 329 337 341 5 341 344 357 341 346 346 357 354 355 355 4 6 355 350 329 292 293 318 287 278 287 291 315 334 329 332 331
298 297 294 292 297 299 302 304 314 313 307 307 312 322 323 320 326 327 338 326 319 325 346 7 17 355 3 353 353 354 346 358 351 359 354 352 4 10 360 350 334 305 302 310 302 319 338 339 335 339 333 320 328 334
297 295 294 295 301 301 301 301 314 308 297 308 320 326 331 333 328 339 346 351 343 334 349 352 5 2 2 357 349 351 352 353 0 355 352 355 11 1 350 337 316 302 310 305 315 338 335 338 342 342 346 353 356 354
295 294 291 297 300 301 299 308 316 313 309 309 322 317 323 334 329 332 335 332 335 336 2 352 356 355 346 351 354 352 357 356 351 352 355 4 6 350 340 322 305 301 303 310 329 334 342 347 339 353 7 13 12 13
294 293 298 299 300 299 300 310 313 312 304 304 311 311 314 311 318 319 315 324 337 335 341 344 335 343 343 342 351 355 360 359 2 358 358 357 352 341 323 312 301 298 307 330 338 343 335 338 349 285 309 306 20 23
297 295 302 300 301 302 305 312 306 304 303 303 304 307 308 311 313 322 324 325 342 339 339 332 340 338 341 346 353 354 354 356 360 359 355 348 339 326 314 301 294 309 331 347 348 350 346 347 289 284 286 28 17 36
301 301 311 303 300 299 302 300 299 298 298 300 302 295 299 306 312 309 312 318 331 324 327 331 329 338 343 349 350 352 347 351 353 351 345 346 334 318 306 294 306 323 348 356 353 350 343 322 296 334 316 307 290 34
297 301 304 302 301 297 290 292 295 297 292 292 294 300 297 298 302 303 305 306 312 314 320 320 323 328 337 343 340 339 350 354 354 347 331 330 320 302 300 295 280 335 333 347 358 358 356 333 341 344 325 311 338 359
296 299 297 294 288 291 287 285 288 295 292 292 290 290 300 298 295 292 296 299 303 303 313 320 321 325 325 324 326 331 342 346 345 323 309 330 315 298 292 281 291 333 4 0 1 356 52 71 50 12 352 3 14 8
285 285 280 285 279 283 284 287 287 287 292 294 290 289 291 293 294 293 295 292 292 294 297 295 295 314 319 332 337 345 346 338 322 285 296 304 307 304 297 287 308 25 27 15 25 12 39 40 36 45 21 28 32 20
289 282 280 279 274 279 282 285 284 288 287 284 291 290 290 293 293 295 297 295 287 266 275 278 291 310 315 318 326 329 324 316 291 303 292 296 316 287 303 304 346 354 357 28 23 29 35 33 38 40 37 34 37 36
293 286 279 269 276 272 276 278 281 285 284 286 286 286 289 292 294 296 299 294 291 291 291 290 303 313 318 325 325 323 311 311 321 328 317 13 307 307 306 324 340 19 20 11 23 31 33 42 46 44 42 44 43 37
287 282 278 273 271 269 275 272 273 276 280 286 284 288 288 287 294 304 297 298 297 301 306 309 309 309 313 313 328 325 311 312 322 319 320 14 268 276 337 346 3 8 16 20 25 31 35 40 35 33 32 31 31 32
276 273 272 271 266 270 273 268 266 270 276 278 280 280 278 285 297 293 294 297 305 329 327 325 331 339 353 314 330 336 326 313 313 325 302 355 322 344 1 11 13 12 18 25 32 34 33 33 31 33 34 33 31 31
269 264 267 267 261 261 263 266 264 266 271 273 274 278 285 287 288 292 296 303 321 322 347 358 356 340 342 2 345 343 310 322 301 271 298 9 348 12 11 1 2 14 24 31 34 33 36 39 40 38 36 36 36 31
251 259 258 258 257 261 264 266 265 267 269 274 276 282 287 286 283 295 295 307 301 333 326 330 318 307 305 309 280 313 295 287 268 267 138 89 27 15 11 22 28 22 26 31 33 36 35 36 37 41 45 51 56 49
233 238 242 238 250 256 256 259 269 268 271 272 277 272 279 287 291 300 234 348 318 290 270 290 273 295 287 318 321 313 321 298 272 299 350 357 325 341 330 322 339 28 44 38 37 32 31 28 31 41 44 48 53 53
229 228 227 221 231 228 251 256 252 254 255 258 263 261 265 275 281 264 285 283 263 265 249 249 347 83 258 329 346 335 311 280 272 285 41 261 270 289 292 281 358 22 81 42 41 63 51 45 46 45 51 50 45 44
213 212 210 211 218 226 225 226 230 231 237 236 235 234 237 233 184 198 305 280 259 248 241 236 266 324 308 325 348 334 285 280 291 260 121 2 283 256 109 168 98 92 78 71 65 58 48 57 56 61 55 53 53 51
211 217 226 230 223 220 221 216 224 231 230 225 224 220 230 235 232 280 274 296 255 238 234 242 254 260 338 335 15 351 327 294 285 235 198 227 284 237 67 57 47 65 58 58 66 63 85 94 91 83 48 44 43 41
231 215 217 215 217 216 218 231 238 229 228 222 214 222 232 247 244 244 238 232 228 253 224 296 33 202 210 254 336 333 299 305 92 189 206 268 270 236 327 325 329 156 29 57 72 60 61 67 55 45 39 50 54 46
205 202 210 211 212 226 233 226 219 213 210 208 211 214 220 221 224 235 237 225 222 223 229 232 224 215 197 197 77 326 340 356 290 291 112 187 194 337 44 39 96 329 68 78 66 55 50 52 42 36 45 54 58 58
198 200 199 206 205 203 202 206 209 207 197 196 198 201 208 211 214 216 222 216 221 226 226 222 217 215 225 226 31 303 339 203 169 183 198 218 196 239 70 67 160 105 101 72 52 52 58 56 52 54 54 55 60 65